TimeEST,TemperatureF,Dew PointF,Humidity,Sea Level PressureIn,VisibilityMPH,Wind Direction,Wind SpeedMPH,Gust SpeedMPH,PrecipitationIn,Events,Conditions,WindDirDegrees,DateUTC
12:00 AM,32.0,32.0,100,29.85,1.0,WNW,3.5,-,N/A,Snow,Light Snow,290,2013-11-27 05:00:00
1:00 AM,33,32,96,29.82,1,NNW,5.8,,,Snow,Light Snow,330,2013-11-27 06:00:00
1:00 AM,33.8,32.0,93,29.82,1.0,NNW,5.8,-,N/A,Snow,Light Snow,330,2013-11-27 06:00:00
1:49 AM,33.8,32.0,93,29.80,1.8,NW,5.8,-,N/A,Snow,Light Snow,320,2013-11-27 06:49:00
2:00 AM,33.8,32.0,93,29.79,2.0,NW,4.6,-,N/A,Snow,Light Snow,320,2013-11-27 07:00:00
2:31 AM,33.8,32.0,93,29.79,1.8,NW,5.8,-,N/A,Snow,Light Snow,320,2013-11-27 07:31:00
2:38 AM,33.8,32.0,93,29.78,1.8,NW,5.8,-,N/A,Snow,Light Snow,320,2013-11-27 07:38:00
3:00 AM,33.8,32.0,93,29.77,1.8,NW,8.1,-,N/A,Snow,Light Snow,320,2013-11-27 08:00:00
3:05 AM,33.8,32.0,93,29.77,2.0,NNW,5.8,-,N/A,Snow,Light Snow,330,2013-11-27 08:05:00
3:11 AM,33.8,32.0,93,29.76,3.0,NW,5.8,-,N/A,Snow,Light Snow,320,2013-11-27 08:11:00
3:15 AM,33.8,32.0,93,29.77,3.0,NW,5.8,-,N/A,Rain-Snow,Light Snow,320,2013-11-27 08:15:00
3:20 AM,33.8,30.2,87,29.77,4.0,NW,6.9,-,N/A,Rain,Light Rain,320,2013-11-27 08:20:00
3:30 AM,33.8,32.0,93,29.76,6.0,Variable,2.3,-,N/A,Rain,Light Rain,0,2013-11-27 08:30:00
3:38 AM,33.8,30.2,87,29.75,8.0,NNW,3.5,-,N/A,,Overcast,330,2013-11-27 08:38:00
4:00 AM,33.8,30.2,87,29.75,8.0,NW,6.9,-,N/A,,Overcast,310,2013-11-27 09:00:00
4:43 AM,33.8,30.2,87,29.74,5.0,NW,5.8,-,N/A,,Overcast,310,2013-11-27 09:43:00
5:00 AM,33.8,30.2,87,29.75,4.0,WNW,5.8,-,N/A,,Overcast,300,2013-11-27 10:00:00
6:00 AM,33.8,30.2,87,29.74,5.0,NW,9.2,-,N/A,,Haze,310,2013-11-27 11:00:00
6:24 AM,33.8,28.4,81,29.73,6.0,NW,8.1,-,N/A,,Overcast,310,2013-11-27 11:24:00
6:58 AM,32.0,30.2,93,29.74,6.0,NW,11.5,18.4,N/A,Snow,Light Snow,310,2013-11-27 11:58:00
7:00 AM,33,29,81,29.74,6,NW,11.5,,,Snow,Light Snow,310,2013-11-27 12:00:00
7:00 AM,32.0,30.2,93,29.74,6.0,NW,13.8,-,N/A,Snow,Light Snow,310,2013-11-27 12:00:00
7:38 AM,33.8,28.4,81,29.75,9.0,NW,11.5,18.4,N/A,Snow,Light Snow,310,2013-11-27 12:38:00
7:43 AM,33.8,28.4,81,29.74,9.0,NW,11.5,19.6,N/A,,Overcast,320,2013-11-27 12:43:00
7:54 AM,33.8,28.4,81,29.74,9.0,NW,13.8,26.5,N/A,,Overcast,320,2013-11-27 12:54:00
8:00 AM,33.8,28.4,81,29.74,9.0,NW,13.8,26.5,N/A,,Mostly Cloudy,320,2013-11-27 13:00:00
8:22 AM,33.8,28.4,81,29.74,9.0,NW,17.3,25.3,N/A,,Mostly Cloudy,320,2013-11-27 13:22:00
8:28 AM,32.0,26.6,80,29.75,9.0,NW,13.8,25.3,N/A,,Mostly Cloudy,320,2013-11-27 13:28:00
9:00 AM,32.0,26.6,80,29.74,9.0,NW,23.0,31.1,N/A,,Mostly Cloudy,320,2013-11-27 14:00:00
10:00 AM,32.0,24.8,75,29.75,9.0,NNW,15.0,25.3,N/A,,Overcast,330,2013-11-27 15:00:00
11:00 AM,33.8,23.0,65,29.73,9.0,NNW,18.4,29.9,N/A,,Overcast,330,2013-11-27 16:00:00
12:00 PM,33.8,23.0,65,29.73,9.0,NW,18.4,25.3,N/A,,Overcast,320,2013-11-27 17:00:00
1:00 PM,33,23,54,29.72,10,NW,13.8,,,,Overcast,320,2013-11-27 18:00:00
1:00 PM,33.8,23.0,65,29.72,9.0,NNW,12.7,25.3,N/A,,Overcast,330,2013-11-27 18:00:00
2:00 PM,32.0,21.2,64,29.72,9.0,NW,16.1,27.6,N/A,,Scattered Clouds,310,2013-11-27 19:00:00
2:34 PM,30.2,23.0,75,29.73,9.0,NW,17.3,28.8,N/A,Snow,Light Snow,310,2013-11-27 19:34:00
2:37 PM,30.2,23.0,75,29.73,5.0,NW,18.4,28.8,N/A,Snow,Light Snow,320,2013-11-27 19:37:00
2:47 PM,32.0,21.2,64,29.74,6.0,NW,15.0,27.6,N/A,Snow,Light Snow,320,2013-11-27 19:47:00
2:51 PM,30.2,21.2,69,29.73,9.0,NW,15.0,24.2,N/A,,Mostly Cloudy,320,2013-11-27 19:51:00
3:00 PM,30.2,21.2,69,29.74,9.0,WNW,17.3,-,N/A,,Mostly Cloudy,300,2013-11-27 20:00:00
3:09 PM,30.2,21.2,69,29.74,9.0,WNW,17.3,26.5,N/A,Snow,Light Snow,300,2013-11-27 20:09:00
3:21 PM,30.2,17.6,60,29.75,9.0,NW,20.7,28.8,N/A,,Scattered Clouds,310,2013-11-27 20:21:00
4:00 PM,30.2,17.6,60,29.77,9.0,NW,21.9,29.9,N/A,,Partly Cloudy,310,2013-11-27 21:00:00
5:00 PM,28.4,19.4,69,29.81,9.0,West,18.4,26.5,N/A,Snow,Light Snow,280,2013-11-27 22:00:00
5:15 PM,28.4,19.4,69,29.82,9.0,WNW,17.3,28.8,N/A,,Overcast,300,2013-11-27 22:15:00
5:20 PM,28.4,19.4,69,29.82,9.0,NW,17.3,34.5,N/A,Snow,Light Snow,310,2013-11-27 22:20:00
6:00 PM,26.6,21.2,80,29.84,9.0,NNW,17.3,24.2,N/A,Snow,Light Snow,330,2013-11-27 23:00:00
6:39 PM,26.6,17.6,69,29.85,9.0,NNW,16.1,23.0,N/A,,Mostly Cloudy,330,2013-11-27 23:39:00
6:48 PM,24.8,17.6,74,29.85,9.0,NW,20.7,28.8,N/A,Snow,Light Snow,320,2013-11-27 23:48:00
6:57 PM,24.8,17.6,74,29.86,9.0,NW,15.0,27.6,N/A,Snow,Light Snow,320,2013-11-27 23:57:00
7:00 PM,25,18,63,29.86,10,NW,15.0,,,Snow,Light Snow,320,2013-11-28 00:00:00
7:00 PM,24.8,17.6,74,29.86,9.0,NW,16.1,26.5,N/A,Snow,Light Snow,320,2013-11-28 00:00:00
7:04 PM,24.8,17.6,74,29.86,9.0,NNW,19.6,28.8,N/A,Snow,Light Snow,330,2013-11-28 00:04:00
7:20 PM,24.8,17.6,74,29.87,9.0,NW,15.0,27.6,N/A,,Partly Cloudy,320,2013-11-28 00:20:00
8:00 PM,24.8,17.6,74,29.88,9.0,NW,13.8,26.5,N/A,,Clear,320,2013-11-28 01:00:00
8:32 PM,23.0,15.8,74,29.89,9.0,NNW,15.0,27.6,N/A,Snow,Light Snow,330,2013-11-28 01:32:00
8:56 PM,23.0,15.8,74,29.90,9.0,NNW,17.3,25.3,N/A,,Partly Cloudy,330,2013-11-28 01:56:00
8:59 PM,23.0,15.8,74,29.90,9.0,NW,18.4,26.5,N/A,Snow,Light Snow,320,2013-11-28 01:59:00
9:00 PM,23.0,15.8,74,29.90,9.0,NNW,17.3,26.5,N/A,Snow,Light Snow,330,2013-11-28 02:00:00
9:21 PM,23.0,15.8,74,29.91,9.0,NW,12.7,28.8,N/A,,Clear,310,2013-11-28 02:21:00
10:00 PM,23.0,15.8,74,29.93,9.0,NW,19.6,27.6,N/A,,Clear,320,2013-11-28 03:00:00
11:00 PM,21.2,14.0,74,29.95,9.0,NW,17.3,25.3,N/A,,Clear,310,2013-11-28 04:00:00